Flag for Poland Weather past 2 weeks in Gorzów Wielkopolski, Poland

Now
53 °F

Low clouds.


Feels Like: 52 °F
Forecast: 42 / 57 °F
Wind: 6 mph from West

Location: Gorzow Wlkp

Current Time: Sep 22, 2014 at 8:35:28 AM

Latest Report: Sep 22, 2014 at 7:00 AM


Visibility: 9 mi

Pressure: 29.75 "Hg

Humidity: 89%

Dew point: 50 °F

Location of Gorzów WielkopolskiLocation

Historic Weather in Gorzów Wielkopolski — Graph

°F

Gorzów Wielkopolski temperature yesterday

Maximum temperature yesterday: 67 °F (at 2:00 PM)
Minimum temperature yesterday: 57 °F (at 11:00 PM)
Average temperature yesterday: 62 °F

Past Weeks' High & Low Weather Summary

 TemperatureHumidityPressure
High79 °F (Sep 7, 4:00 PM)99% (Sep 11, 3:00 AM)30.18 "Hg (Sep 11, 3:00 AM)
Low50 °F (Sep 11, 2:00 AM)42% (Sep 17, 5:00 PM)29.75 "Hg (Sep 22, 5:00 AM)
Average63 °F79%30.02 "Hg
* Reported Sep 7 7:00 AM — Sep 22 7:00 AM, Gorzów Wielkopolski, Weather by CustomWeather, © 2014

Note: Actual official high and low records may vary slightly from our data, if they occured in-between our weather recording intervals... More about our weather records

Advertising

Gorzów Wielkopolski weather history for previous 24 hours

 ConditionsComfort  
Time TempWeatherWind HumidityBarometerVisibility
7:00 AM
Sep 22
53 °FLow clouds.6 mph89%29.75 "Hg9 mi
6:00 AM53 °FFog.5 mph91%29.75 "Hg5 mi
5:00 AM52 °FLow clouds.5 mph90%29.75 "Hg6 mi
4:00 AM52 °FOvercast.3 mph90%29.76 "Hg9 mi
3:00 AM53 °FOvercast.3 mph89%29.77 "Hg19 mi
2:00 AM55 °FOvercast.5 mph86%29.78 "Hg19 mi
1:00 AM56 °FOvercast.3 mph85%29.79 "Hg25 mi
12:00 AM57 °FOvercast.3 mph86%29.79 "Hg25 mi
11:00 PM
Sep 21
57 °FOvercast.3 mph83%29.80 "Hg31 mi
10:00 PM58 °FOvercast.3 mph78%29.80 "Hg31 mi
9:00 PM59 °FOvercast.2 mph85%29.80 "Hg19 mi
8:00 PM60 °FOvercast.3 mph84%29.80 "Hg12 mi
7:00 PM61 °FOvercast.5 mph78%29.79 "Hg12 mi
6:00 PM64 °FPartly sunny.3 mph74%29.79 "Hg12 mi
5:00 PM64 °FOvercast.3 mph75%29.79 "Hg12 mi
4:00 PM65 °FOvercast.3 mph76%29.80 "Hg7 mi
3:00 PM67 °FOvercast.5 mph74%29.80 "Hg6 mi
2:00 PM67 °FFog.2 mph73%29.81 "Hg5 mi
1:00 PM66 °FFog.2 mph80%29.83 "Hg3 mi
12:00 PM64 °FFog.2 mph85%29.83 "Hg5 mi
11:00 AM62 °FFog.2 mph91%29.84 "Hg5 mi
10:00 AM61 °FFog.2 mph92%29.84 "Hg4 mi
9:00 AM60 °FFog.2 mph95%29.83 "Hg2 mi
8:00 AM61 °FFog.2 mph96%29.83 "Hg2 mi
Weather by CustomWeather, © 2014

See weather overviewHow to use our weather pages